EW4536 Weather Reports


Display with metric or nautical units.
time (UTC)temp
F
wind
direction
speed
MPH
gust
MPH
rain 1hr
in
rain 24hr
in
rain mn
in
humidity
%
barometer
mb
20260901191514 87 66 2.0 6.0 0.00 0.00 0.00 71 1016.0
20260901190048 89 134 3.0 11.0 0.00 0.00 0.00 66 1016.1
20260901184511 89 93 1.0 10.0 0.00 0.00 0.00 68 1016.2
20260901183054 86 95 3.0 8.0 0.00 0.00 0.00 74 1016.4
20260901181518 88 78 1.0 4.0 0.00 0.00 0.00 71 1016.4
20260901180050 85 107 1.0 3.0 0.00 0.00 0.00 80 1016.7
20260901174525 82 118 0.0 3.0 0.00 0.00 0.00 87 1017.1
20260901173054 81 107 4.0 11.0 0.00 0.00 0.00 85 1017.1
20260901171520 87 77 0.0 5.0 0.00 0.00 0.00 71 1017.0
20260901170119 89 83 1.0 5.0 0.00 0.00 0.00 69 1017.2
20260901164520 88 5 4.0 7.0 0.00 0.00 0.00 69 1017.4
20260901163051 89 69 1.0 5.0 0.00 0.00 0.00 68 1017.5
20260901161520 87 43 1.0 3.0 0.00 0.00 0.00 70 1017.7
20260901160101 86 32 2.0 4.0 0.00 0.00 0.00 74 1017.8
20260901154523 86 43 1.0 4.0 0.00 0.00 0.00 75 1017.9
20260901153103 86 82 2.0 9.0 0.00 0.00 0.00 74 1018.0
20260901151522 84 9 0.0 5.0 0.00 0.00 0.00 79 1018.0
20260901150109 85 69 1.0 6.0 0.00 0.00 0.00 78 1018.0
20260901144520 83 31 1.0 5.0 0.00 0.00 0.00 83 1017.9
20260901143053 82 48 0.0 3.0 0.00 0.00 0.00 84 1017.9
20260901141524 81 52 0.0 4.0 0.00 0.00 0.00 89 1017.8
20260901140106 80 78 1.0 2.0 0.00 0.00 0.00 93 1017.9
20260901134520 78 96 0.0 2.0 0.00 0.00 0.00 95 1017.9
20260901133105 77 44 1.0 4.0 0.00 0.00 0.00 96 1017.9
20260901131530 76 45 0.0 2.0 0.00 0.00 0.00 97 1017.9
20260901130109 76 38 1.0 3.0 0.00 0.00 0.00 97 1018.0
20260901124535 75 61 1.0 2.0 0.00 0.00 0.00 97 1017.7
20260901123022 75 61 0.0 2.0 0.00 0.00 0.00 97 1017.6
20260901121558 74 61 0.0 2.0 0.00 0.00 0.00 97 1017.5
20260901120013 74 61 0.0 2.0 0.00 0.00 0.00 97 1017.4
20260901114557 74 61 0.0 2.0 0.00 0.00 0.00 96 1017.2
20260901113020 73 61 0.0 2.0 0.00 0.00 0.00 96 1017.0
20260901111556 73 61 0.0 0.0 0.00 0.00 0.00 96 1016.9
20260901110016 73 61 0.0 0.0 0.00 0.00 0.00 96 1016.8
20260901104556 73 61 0.0 0.0 0.00 0.00 0.00 96 1016.6
20260901103025 73 61 0.0 0.0 0.00 0.00 0.00 96 1016.6
20260901101604 73 61 0.0 0.0 0.00 0.00 0.00 96 1016.4
20260901100037 73 61 0.0 0.0 0.00 0.00 0.00 96 1016.4
20260901094610 73 61 0.0 0.0 0.00 0.00 0.00 96 1016.3
20260901093039 73 61 0.0 0.0 0.00 0.00 0.00 96 1016.2
20260901091509 73 61 0.0 0.0 0.00 0.00 0.00 96 1016.1
20260901090044 73 61 0.0 2.0 0.00 0.00 0.00 96 1016.0
20260901084507 73 61 0.0 2.0 0.00 0.00 0.00 96 1016.1
20260901083046 73 61 0.0 0.0 0.00 0.00 0.00 96 1016.0
20260901081511 74 61 0.0 0.0 0.00 0.00 0.00 96 1016.1
20260901080056 73 61 0.0 2.0 0.00 0.00 0.00 95 1016.2
20260901074520 73 61 0.0 2.0 0.00 0.00 0.00 95 1016.3
20260901073059 73 61 0.0 0.0 0.00 0.00 0.00 95 1016.3
20260901071519 73 61 0.0 0.0 0.00 0.00 0.00 95 1016.5
20260901070050 73 61 0.0 0.0 0.00 0.00 0.00 95 1016.6
20260901064513 73 61 0.0 0.0 0.00 0.00 0.00 95 1016.8
20260901063111 73 61 0.0 0.0 0.00 0.00 0.00 95 1016.9
20260901061514 74 61 0.0 0.0 0.00 0.00 0.00 95 1017.1
20260901060043 73 61 0.0 2.0 0.00 0.00 0.00 95 1017.1
20260901054512 74 61 0.0 0.0 0.00 0.00 0.00 94 1017.2
20260901053053 74 61 0.0 0.0 0.00 0.00 0.00 94 1017.3
20260901051509 74 61 0.0 0.0 0.00 0.00 0.00 94 1017.3
20260901050046 74 61 0.0 0.0 0.00 0.00 0.00 94 1017.4
20260901044613 75 61 0.0 0.0 0.00 0.00 0.00 94 1017.5
20260901043036 75 61 0.0 0.0 0.00 0.00 0.00 93 1017.5
20260901041516 75 61 0.0 0.0 0.00 0.00 0.00 93 1017.6
20260901040048 76 61 0.0 0.0 0.00 0.00 0.00 92 1017.4
20260901034531 76 61 0.0 0.0 0.00 0.00 0.00 91 1017.6
20260901033108 77 61 0.0 0.0 0.00 0.00 0.00 90 1017.7
20260901031604 77 61 0.0 0.0 0.00 0.00 0.00 90 1017.8
20260901030026 77 61 0.0 1.0 0.00 0.00 0.00 88 1017.9
20260901024610 78 61 0.0 2.0 0.00 0.00 0.00 87 1017.9
20260901023021 78 61 0.0 2.0 0.00 0.00 0.00 86 1017.9
20260901021550 78 61 0.0 2.0 0.00 0.00 0.00 86 1017.9
20260901020018 78 61 0.0 0.0 0.00 0.00 0.00 85 1017.7
20260901014605 79 61 0.0 2.0 0.00 0.00 0.00 84 1017.5
20260901013011 79 61 0.0 2.0 0.00 0.00 0.00 84 1017.3
20260901011546 80 61 0.0 3.0 0.00 0.00 0.00 82 1017.0
20260901010012 80 98 1.0 4.0 0.00 0.00 0.00 82 1016.8
20260901004536 81 76 1.0 2.0 0.00 0.00 0.00 81 1016.5
20260901003112 81 75 0.0 4.0 0.00 0.00 0.00 80 1016.5
20260901001547 82 65 0.0 2.0 0.00 0.00 0.00 79 1016.6
20260901000003 82 65 0.0 3.0 0.00 0.00 0.00 78 1016.6
20260831234540 83 72 2.0 6.0 0.00 0.00 0.00 76 1016.4
20260831233005 84 77 1.0 3.0 0.00 0.00 0.00 75 1016.3
20260831231542 84 105 3.0 6.0 0.00 0.00 0.00 75 1016.4
20260831230012 85 86 0.0 3.0 0.00 0.00 0.00 74 1016.2
20260831224551 86 97 2.0 4.0 0.00 0.00 0.00 71 1016.1
20260831223019 87 86 4.0 12.0 0.00 0.00 0.00 68 1016.0
20260831221558 88 70 1.0 7.0 0.00 0.00 0.00 66 1015.7
20260831220019 89 62 1.0 4.0 0.00 0.00 0.00 64 1015.6
20260831214555 88 90 2.0 5.0 0.00 0.00 0.00 66 1015.9
20260831213024 89 95 2.0 5.0 0.00 0.00 0.00 65 1015.7
20260831211607 90 43 2.0 4.0 0.00 0.00 0.00 61 1015.7
20260831210030 90 91 1.0 6.0 0.00 0.00 0.00 64 1015.8
20260831204504 90 105 2.0 4.0 0.00 0.00 0.00 62 1015.8
20260831203043 89 69 2.0 8.0 0.00 0.00 0.00 65 1015.8
20260831201506 89 35 2.0 7.0 0.00 0.00 0.00 66 1015.8
20260831200042 90 84 5.0 8.0 0.00 0.00 0.00 67 1015.8
20260831194502 90 90 3.0 8.0 0.00 0.01 0.00 64 1015.9
20260831193042 88 98 2.0 8.0 0.00 0.01 0.00 69 1016.0